Wetterdaten: aktuell Dienstag, 18.05.2021 12:05
Datum Zeit Temp 2m Temp 2m ob Temp 10cm Regen Wind mittel Richtung Richtung Taupunkt Windben
18.05.2021 12:05 12,6 C 11,1 C 11,6 C 0,0 l/m 4,7 km/h NW 315 8,5 C 7,6 km/h
18.05.2021 12:00 12,6 C 11,1 C 11,6 C 0,0 l/m 4,8 km/h W 270 8,5 C 6,8 km/h
18.05.2021 11:55 12,3 C 10,9 C 11,4 C 0,0 l/m 5,0 km/h O-SO 112 8,9 C 3,9 km/h
18.05.2021 11:50 11,9 C 10,8 C 11,1 C 0,0 l/m 4,8 km/h O-NO 67 8,7 C 6,6 km/h
18.05.2021 11:45 11,5 C 10,6 C 10,8 C 0,0 l/m 4,5 km/h N 360 8,7 C 5,8 km/h
18.05.2021 11:40 11,3 C 10,4 C 10,4 C 0,0 l/m 4,7 km/h N 360 8,5 C 4,2 km/h
18.05.2021 11:35 11,2 C 10,3 C 10,4 C 0,0 l/m 4,0 km/h N 360 8,4 C 2,9 km/h
18.05.2021 11:30 11,1 C 10,3 C 10,4 C 0,0 l/m 3,7 km/h NW 315 8,3 C 3,5 km/h
18.05.2021 11:25 11,0 C 10,2 C 10,4 C 0,0 l/m 3,2 km/h N 360 8,2 C 6,9 km/h
18.05.2021 11:20 11,0 C 10,1 C 10,4 C 0,0 l/m 3,7 km/h N-NW 337 8,4 C 6,3 km/h
18.05.2021 11:15 10,7 C 10,1 C 10,4 C 0,0 l/m 3,4 km/h N 360 8,3 C 5,0 km/h
18.05.2021 11:10 10,5 C 10,0 C 10,4 C 0,0 l/m 2,4 km/h N-NW 337 8,1 C 3,5 km/h
18.05.2021 11:05 10,3 C 10,0 C 10,4 C 0,0 l/m 3,4 km/h S-SO 157 7,7 C 3,4 km/h
18.05.2021 11:00 10,5 C 10,0 C 10,4 C 0,0 l/m 4,7 km/h NO 45 7,9 C 5,0 km/h
18.05.2021 10:55 10,5 C 10,1 C 10,4 C 0,0 l/m 5,3 km/h N-NW 337 7,7 C 6,0 km/h
18.05.2021 10:50 10,6 C 10,1 C 10,4 C 0,0 l/m 5,0 km/h N 360 7,8 C 9,3 km/h
18.05.2021 10:45 10,8 C 10,1 C 10,4 C 0,0 l/m 4,8 km/h N 360 8,0 C 9,8 km/h
18.05.2021 10:40 10,8 C 10,1 C 10,4 C 0,0 l/m 4,3 km/h NO 45 8,2 C 6,8 km/h
18.05.2021 10:35 10,7 C 10,0 C 9,8 C 0,0 l/m 3,7 km/h SW 225 8,3 C 5,1 km/h
18.05.2021 10:30 10,6 C 9,9 C 9,8 C 0,0 l/m 4,3 km/h NO 45 8,2 C 4,3 km/h
18.05.2021 10:25 10,5 C 9,8 C 9,8 C 0,0 l/m 5,0 km/h NO 45 8,1 C 3,7 km/h
18.05.2021 10:20 10,4 C 9,8 C 9,8 C 0,0 l/m 4,7 km/h S-SW 202 8,0 C 4,8 km/h
18.05.2021 10:15 10,3 C 9,6 C 9,8 C 0,0 l/m 4,8 km/h W-NW 292 7,9 C 6,3 km/h
18.05.2021 10:10 10,3 C 9,7 C 9,8 C 0,0 l/m 4,3 km/h NO 45 8,1 C 15,8 km/h
18.05.2021 10:05 10,2 C 9,5 C 9,8 C 0,0 l/m 3,2 km/h N-NW 337 8,1 C 6,9 km/h
18.05.2021 10:00 10,0 C 9,5 C 9,6 C 0,0 l/m 2,1 km/h N-NO 22 8,1 C 2,3 km/h
_ Min-Zeit 04:35 04:45 07:10 - 20:05 - - 04:35 13:15
Minimum _ 7,1 C 7,5 C 7,5 C - 0,0 km/h - - 5,4 C 0,0 km/h
_ Max-Zeit 15:55 13:00 13:00 13:05 14:15 - - 15:50 21:50
Maximum _ 13,1 C 11,8 C 12,2 C 0,7 l/m 9,2 km/h
N-NO
- - 10,1 C 21,6 km/h
N-NO
Durchschnitt _ 9,8 C 9,6 C 10,1 C #4,8 l/m 3,5 km/h N - 7,5 C 5,8 km/h